TimeEST,TemperatureF,Dew PointF,Humidity,Sea Level PressureIn,VisibilityMPH,Wind Direction,Wind SpeedMPH,Gust SpeedMPH,PrecipitationIn,Events,Conditions,WindDirDegrees,DateUTC
12:51 AM,30.9,10.9,43,30.05,10.0,WNW,13.8,21.9,N/A,,Clear,290,2014-01-18 05:51:00
1:51 AM,30.0,10.9,45,30.05,10.0,West,8.1,-,N/A,,Clear,270,2014-01-18 06:51:00
2:51 AM,28.9,10.9,47,30.07,10.0,West,9.2,-,N/A,,Clear,280,2014-01-18 07:51:00
3:51 AM,28.0,12.0,51,30.08,10.0,West,6.9,-,N/A,,Clear,270,2014-01-18 08:51:00
4:51 AM,28.0,12.0,51,30.08,10.0,WNW,6.9,-,N/A,,Clear,290,2014-01-18 09:51:00
5:51 AM,28.0,10.9,49,30.11,10.0,West,9.2,-,N/A,,Clear,270,2014-01-18 10:51:00
6:51 AM,27.0,10.9,51,30.11,10.0,WNW,12.7,18.4,N/A,,Clear,290,2014-01-18 11:51:00
7:51 AM,26.1,12.0,55,30.13,10.0,West,6.9,-,N/A,,Clear,280,2014-01-18 12:51:00
8:51 AM,28.0,12.0,51,30.16,10.0,West,9.2,-,N/A,,Clear,270,2014-01-18 13:51:00
9:51 AM,30.9,12.0,46,30.19,10.0,WNW,6.9,-,N/A,,Clear,290,2014-01-18 14:51:00
10:51 AM,33.1,10.9,40,30.20,10.0,West,8.1,20.7,N/A,,Clear,260,2014-01-18 15:51:00
11:51 AM,36.0,10.0,34,30.19,10.0,WNW,12.7,-,N/A,,Clear,290,2014-01-18 16:51:00
12:51 PM,37.9,10.0,32,30.15,10.0,North,-9999.0,-,N/A,,Clear,0,2014-01-18 17:51:00
1:51 PM,39.9,10.0,29,30.12,10.0,West,12.7,18.4,N/A,,Clear,280,2014-01-18 18:51:00
2:51 PM,42.1,9.0,26,30.11,10.0,West,8.1,17.3,N/A,,Clear,280,2014-01-18 19:51:00
3:51 PM,43.0,8.1,24,30.10,10.0,Variable,6.9,-,N/A,,Clear,0,2014-01-18 20:51:00
4:51 PM,42.1,7.0,24,30.09,10.0,Variable,3.5,-,N/A,,Clear,0,2014-01-18 21:51:00
5:51 PM,39.0,8.1,28,30.07,10.0,SW,4.6,-,N/A,,Clear,230,2014-01-18 22:51:00
6:51 PM,36.0,10.9,36,30.07,10.0,South,3.5,-,N/A,,Clear,190,2014-01-18 23:51:00
7:51 PM,36.0,10.9,36,30.07,10.0,SSW,3.5,-,N/A,,Clear,210,2014-01-19 00:51:00
8:51 PM,36.0,10.9,36,30.04,10.0,SSW,4.6,-,N/A,,Clear,200,2014-01-19 01:51:00
9:51 PM,35.1,10.0,35,30.06,10.0,Calm,Calm,-,N/A,,Clear,0,2014-01-19 02:51:00
10:51 PM,32.0,12.9,45,30.05,10.0,Calm,Calm,-,N/A,,Clear,0,2014-01-19 03:51:00
11:51 PM,34.0,12.0,40,30.03,10.0,SSW,3.5,-,N/A,,Clear,200,2014-01-19 04:51:00